Location: Joplin, MO
(37.0842°N, 94.5133°W)
Time: 21:09:32
(UTC+02:00)

Transit 2A Rocket - Pass Details

Date: 28 March 2023
Orbit: 584 x 914 km, 66.7° (Epoch: 06 June)

Event Time Altitude Azimuth Distance (km) Brightness Sun altitude
Rises 05:19:05 0° 318° (NW) 3,540 9.5 -31.5°
Reaches altitude 10° 05:22:07 10° 305° (NW) 2,573 8.6 -32.0°
Maximum altitude 05:26:42 23° 255° (WSW) 1,755 7.1 -32.8°
Enters shadow 05:28:19 21° 231° (SW) 1,851 7.1 -33.1°
Drops below altitude 10° 05:31:05 10° 204° (SSW) 2,440 - -33.5°
Sets 05:33:54 0° 190° (S) 3,315 - -34.0°
